Voltar ao catálogo

STARLINK-3834

AtivoComunicaçõesVLEO
NORAD 52368·PAYLOAD·🇺🇸 United States

Lançado Apr 29, 2022 de Cape Canaveral Space Force Station

Loading…

Próximas Passagens (próximas 24 horas)

TLE

AtualizadoSource: CelesTrak SupGP

Época: Sep 15, 2026, 01:22 UTC

1 52368C 22045AP  26258.05743056 -.00030556  00000+0 -90303-3 0  2586
2 52368  53.1596  50.8161 0001191  81.4133  98.6425 15.34397538    11

Acompanhe STARLINK-3834 em tempo real com AllMySat

Download on the App Store